Regional Weather Roundup
Issued by NWS

Home | Current Version | Previous Version | Text Only | Print | Product List | Glossary Off
Versions: 1 2 3 4 5 6 7 8 9 10 11 12 13 14 15 16 17 18 19 20 21 22 23 24 25 26 27 28 29 30 31 32 33 34 35 36 37 38 39 40 41 42 43 44 45 46 47 48 49 50

000
ASUS45 KABQ 180710
RWRNM
WEATHER ROUNDUP FOR NEW MEXICO
NATIONAL WEATHER SERVICE ALBUQUERQUE NM
1200 AM MST THU DEC 18 2014

NOTE: "FAIR" MEANS FEW OR NO CLOUDS BELOW 12,000 FEET AGL WITH NO
       SIGNIFICANT WEATHER OR OBSTRUCTIONS TO VISION.

      THIS PRODUCT IS RELEASED AS TWO VERSIONS.  ONE VERSION NEAR
      THE TOP OF THE HOUR CONTAINING PRELIMINARY DATA FROM ALBUQUERQUE
      AND OTHER STATIONS.  A FINAL VERSION WITH ADDITIONAL DATA IS
      ISSUED ABOUT 10 MINUTES AFTER THE HOUR.

NMZ501-503-504-510>518-180800-
NORTHWEST PLATEAU/NORTHCENTRAL MOUNTAINS

CITY           SKY/WX    TMP DP  RH WIND       PRES   REMARKS
FARMINGTON     CLOUDY    34  33  96 W3        30.09S
LOS ALAMOS     CLOUDY    29  29 100 NW3       30.06F FOG
SANTA FE       PTCLDY    30  28  92 W10       30.06F WCI  21
TAOS           MOCLDY    30  27  86 SW8       30.06S WCI  23
ANGEL FIRE     LGT SNOW  28  25  87 SW6       30.03S WCI  22

$$
NMZ402-403-502-505>509-180800-
WESTCENTRAL MOUNTAINS/SOUTHWEST MOUNTAINS

CITY           SKY/WX    TMP DP  RH WIND       PRES   REMARKS
GALLUP         MOCLDY    31  29  92 CALM      30.12S
GRANTS         PTCLDY    26  25  94 CALM      30.13R
SILVER CITY    PTCLDY    36  34  93 NW12      30.16S WCI  27

$$
NMZ407-409-411-412-180800-
SOUTHERN DESERTS

CITY           SKY/WX    TMP DP  RH WIND       PRES   REMARKS
LORDSBURG      DRIZZLE   39  37  93 NW3       30.16S
DEMING         CLOUDY    41  37  86 W7        30.15R
LAS CRUCES     PTCLDY    36  32  87 W7        30.15S WCI  30
HOLLOMAN AFB   MOCLDY    47  31  55 SE6       30.11S
T OR C         CLOUDY    38  29  70 CALM      30.11S

$$
NMZ519>523-180800-
CENTRAL VALLEYS/CENTRAL HIGHLANDS

CITY           SKY/WX    TMP DP  RH WIND       PRES   REMARKS
ALBUQUERQUE    PTCLDY    36  31  82 S6        30.11F WCI  31
DOUBLE EAGLE   PTCLDY    31  28  89 W8        30.10F WCI  23
MORIARTY ARPT  FAIR      30  27  89 SW8       30.09S WCI  22
CLINES CORNERS CLEAR     28  26  92 W24       30.01F WCI  14
BELEN          FAIR      30  29  96 SW5       30.11F WCI  25
SOCORRO        FAIR      33  28  81 SW5       30.12R WCI  29

$$
NMZ524>526-539-540-180800-
SOUTHCENTRAL MOUNTAINS

CITY           SKY/WX    TMP DP  RH WIND       PRES   REMARKS
RUIDOSO        PTCLDY    32  25  74 W9        30.11F WCI  24

$$
NMZ527>531-180800-
NORTHEAST HIGHLANDS/NORTHEAST PLAINS

CITY           SKY/WX    TMP DP  RH WIND       PRES   REMARKS
LAS VEGAS      MOCLDY    29  23  78 W9        29.99F WCI  20
RATON          CLOUDY    24  20  84 E6        29.97F WCI  17
CLAYTON        CLEAR     27  23  85 N3        29.98S

$$
NMZ532>537-180800-
EASTCENTRAL PLAINS

CITY           SKY/WX    TMP DP  RH WIND       PRES   REMARKS
TUCUMCARI      CLEAR     34  28  79 NE9       29.99R WCI  27
CANNON AFB     CLEAR     39  32  75 W10       30.01S WCI  32
CLOVIS AIRPORT CLEAR     34  28  80 W9        30.01S WCI  26

$$
NMZ028-029-538-180800-
SOUTHEAST PLAINS

CITY           SKY/WX    TMP DP  RH WIND       PRES   REMARKS
ROSWELL        CLEAR     34  28  79 SW7       30.06S WCI  28
ARTESIA        CLEAR     45  32  61 N9        30.08S
CARLSBAD       CLEAR     50  32  50 SW10      30.06S
HOBBS          CLEAR     43  32  65 SW8       30.07S


$$


USA.gov is the U.S. government's official web portal to all federal, state and local government web resources and services.